Location: Young's Pond
(41.2695°N, 72.7766°W)
Time: 01:01:14
(UTC-04:00)

Daily predictions for brighter satellites

Satellite Brightness Start Highest point End
(mag) Time Altitude Azimuth Time Altitude Azimuth Time Altitude Azimuth
ATLAS CENTAUR R/B 4.4 00:16:15 62° W 00:18:21 76° NW 00:44:40 10° NE
Cosmos 2278 Rocket 4.1 00:23:37 10° NNW 00:25:52 25° NNW 00:25:52 25° NNW
ATLAS 3B R/B 3.8 00:38:24 42° NE 00:38:24 42° NE 00:42:56 10° NE
Cosmos 2219 Rocket 4.2 01:17:14 22° NNW 01:17:14 22° NNW 01:19:48 10° N
SL-16 R/B 4.0 01:37:57 28° NNE 01:37:57 28° NNE 01:40:34 10° NNE
Cosmos 2237 Rocket 4.2 01:39:40 24° NNW 01:39:40 24° NNW 01:42:27 10° N
CZ-4C R/B 4.0 01:40:57 28° NNE 01:40:57 28° NNE 01:43:47 10° NE
Cosmos 2333 Rocket 4.2 01:45:34 22° NNW 01:45:34 22° NNW 01:48:32 10° N
NOSS 3-2 (C) 4.5 02:11:15 42° ENE 02:11:15 42° ENE 02:15:39 10° NE
CZ-2D R/B 4.5 02:17:00 10° ENE 02:19:35 14° E 02:19:35 14° E
ATLAS 3B R/B 4.3 02:25:37 25° NW 02:27:04 27° NW 02:33:10 10° NNE
Cosmos 839 Rocket 4.4 02:33:51 10° NNW 02:41:36 78° N 02:41:36 78° N
Resurs 1-4 Rocket 3.9 02:39:40 10° NE 02:43:54 24° E 02:43:54 24° E
Cosmos 1943 4.0 02:46:14 49° NE 02:46:14 49° NE 02:50:21 10° NNE
CZ-3A R/B 3.9 02:45:24 60° S 02:47:47 75° SE 03:43:05 10° NE
Cosmos 2369 Rocket 3.4 02:49:05 10° NNW 02:52:13 35° NNW 02:52:13 35° NNW
Meteor 2-3 Rocket 4.3 02:49:25 10° N 02:54:04 57° NNE 02:54:04 57° NNE
Cosmos 2315 Rocket 4.4 03:02:51 52° ESE 03:03:27 54° E 03:09:33 10° NNE
Cosmos 1943 Rocket 3.1 03:00:47 10° NNW 03:06:14 46° ENE 03:08:54 27° ESE
Cosmos 1455 4.5 03:08:30 24° NE 03:08:30 24° NE 03:10:27 10° NNE
SL-16 R/B 4.5 03:19:50 12° NW 03:20:05 12° NW 03:22:23 10° NNW
USA 234 3.5 03:14:23 10° NE 03:20:47 54° SE 03:21:30 51° SSE
ERS-2 4.2 03:23:29 10° NNE 03:25:16 27° NNE 03:25:16 27° NNE
CZ-4C R/B 4.0 03:26:08 19° NW 03:27:19 20° NNW 03:31:45 10° NNE
Meteor 2-10 4.1 03:29:50 77° NNW 03:29:50 77° NNW 03:34:51 10° N
IRS-1D 3.6 03:26:08 10° NNE 03:31:24 78° ESE 03:31:25 78° ESE
Spot 4 Rocket 4.2 03:27:08 10° N 03:31:37 62° NNW 03:31:37 62° NNW
Cosmos 724 4.5 03:33:03 57° NW 03:33:04 57° NW 03:39:03 10° NNE
ARIANE 5 R/B 2.5 03:29:44 10° NNE 03:34:53 86° NNE 03:34:53 86° NNE
ATLAS 5 CENTAUR R/B 2.1 03:38:58 62° NNW 03:38:58 62° NNW 03:43:46 10° NNE
Cosmos 1825 4.3 03:35:48 10° NNE 03:39:00 25° ENE 03:40:31 20° ESE
SL-16 R/B 2.4 03:41:16 57° S 03:42:35 80° WSW 03:48:50 10° NNW
Cosmos 1733 Rocket 3.5 03:38:13 10° N 03:41:43 56° N 03:41:43 56° N
Cosmos 1709 Rocket 3.9 03:38:55 10° NNW 03:45:13 67° W 03:45:50 63° SW
Abrixas rocket 4.3 03:46:37 28° NE 03:46:37 28° NE 03:48:55 10° E
CENTAUR R/B 2.4 03:47:14 59° SSW 03:48:32 84° ESE 03:55:24 10° NE
Cosmos 389 Rocket 3.7 03:52:26 40° NNE 03:52:26 40° NNE 03:54:50 10° NNE
ADEOS 4.2 03:48:56 10° N 03:53:28 41° WNW 03:53:28 41° WNW
Cosmos 1174 4.5 03:54:20 59° SSE 03:55:01 68° ESE 03:59:26 10° NE
ARGOS Delta rocket 4.3 03:52:42 10° NNE 03:56:59 50° E 03:58:18 37° SSE
CZ-2D R/B 4.0 03:52:52 10° NNE 03:57:11 58° E 03:57:53 51° SE
CZ-2D R/B 2.0 03:54:58 10° N 04:00:13 71° WNW 04:00:54 62° WSW
Cosmos 1992 Rocket 4.2 04:00:48 10° NNW 04:06:02 71° ENE 04:11:15 10° SSE
Cosmos 2074 Rocket 4.0 04:02:31 10° N 04:08:47 83° E 04:15:02 10° S
CZ-2C R/B 4.5 04:05:43 10° SSE 04:10:00 50° ENE 04:14:18 10° N
Cosmos 2327 Rocket 4.5 04:04:28 10° N 04:10:38 83° E 04:16:50 10° S
COSMOS 2487 4.4 04:09:58 21° SE 04:11:22 27° ESE 04:14:29 10° NE
Cosmos 1908 Rocket 3.5 04:09:57 10° N 04:14:22 81° E 04:16:29 30° SSE
Cosmos 2184 Rocket 4.0 04:09:52 10° N 04:16:18 89° WSW 04:22:38 10° S
EO 1 Del DPAF 3.9 04:19:42 41° NW 04:19:42 41° NW 04:22:34 10° NNW
MTI 4.4 04:20:02 48° NNW 04:20:02 48° NNW 04:22:34 10° NNW
SL-27 R/B 3.1 04:20:01 45° NW 04:20:01 45° NW 04:23:02 10° N
UNKNOWN OBJECT B 3.0 04:18:39 10° N 04:21:58 47° WNW 04:21:58 47° WNW
Resurs 1-4 Rocket 2.6 04:18:56 10° N 04:23:53 42° WNW 04:24:59 37° W
USA 32 4.2 04:22:04 16° S 04:26:18 74° E 04:31:33 10° N
Cosmos 1862 3.1 04:25:02 10° NNW 04:28:59 69° W 04:30:08 43° SSW
Okean O Rocket 1.6 04:25:27 10° NNE 04:29:57 83° E 04:32:24 27° S
Cosmos 2221 Rocket 3.5 04:29:08 26° S 04:31:34 84° E 04:36:00 10° N
Cosmos 1703 Rocket 3.5 04:30:10 30° S 04:32:22 86° W 04:36:53 10° N
ADEOS II 3.9 04:28:12 10° NE 04:32:49 30° E 04:37:25 10° SSE
COSMOS 2406 3.4 04:37:42 30° SW 04:40:22 56° WNW 04:46:02 10° NNE
Okean-O 4.2 04:36:32 10° NNE 04:40:34 34° E 04:44:36 10° SSE
Cosmos 1455 4.2 04:43:33 15° WNW 04:43:33 15° WNW 04:45:11 10° NNW
Sich 1 Rocket 4.2 04:41:52 10° NNW 04:45:53 35° W 04:46:53 31° WSW
CZ-4B R/B 3.1 04:42:14 10° NNE 04:47:34 88° WNW 04:52:34 12° SSW
Cosmos 1408 3.0 04:44:21 10° NNW 04:47:53 41° W 04:48:48 34° SW
Cosmos 1943 Rocket 3.1 04:45:08 10° NW 04:49:40 25° WSW 04:50:12 25° WSW
Cosmos 2285 Rocket 4.2 04:43:47 10° NNW 04:49:57 50° WSW 04:56:03 10° S
MOZ.5/SAFIR/RUBIN 5/SL-8 3.8 04:45:34 10° S 04:50:05 54° W 04:54:40 10° NNW
CZ-4B DEB 4.2 04:46:20 10° NNE 04:51:50 88° WNW 04:57:17 10° SSW
Cosmos 1933 4.0 04:51:40 30° WSW 04:52:47 35° WNW 04:56:36 10° N
IRS-1C Rocket 4.2 04:48:55 10° N 04:54:06 59° WNW 04:58:06 17° SSW
Cosmos 407 Rocket 3.4 04:51:34 16° SSW 04:55:43 81° WNW 05:01:02 10° NNE
SeaSat 1 2.5 04:53:26 10° SSE 04:58:15 57° WSW 05:03:08 10° NW
Okean 1-7 2.9 04:54:53 15° SSW 04:58:27 70° W 05:02:49 10° N
Atlas Centaur 2 3.2 04:59:34 15° SSW 05:01:25 19° SSE 05:04:49 10° ESE
USA 234 3.7 04:57:28 10° NE 05:03:44 49° NNW 05:08:50 16° W
Cosmos 2082 Rocket 4.1 04:59:12 10° SSE 05:04:04 30° ESE 05:08:56 10° NE
CZ-4B R/B 2.9 05:01:43 10° N 05:05:20 53° WNW 05:08:16 16° SSW
GPS 2-05 Rocket1 4.0 05:05:26 21° SW 05:06:49 28° S 05:09:45 10° ESE
Cosmos 1782 4.4 05:04:15 10° SSE 05:08:00 38° E 05:11:47 10° NNE
Cosmos 1140 Rocket 4.3 05:04:54 10° S 05:09:50 52° ESE 05:14:49 10° NNE
Aureole 3 Rocket 3.9 05:06:17 10° SSW 05:12:36 48° W 05:17:10 10° N
ARIANE 5 R/B 4.5 05:11:10 10° NW 05:13:20 13° WNW 05:15:13 11° W
Cosmos 1825 3.6 05:11:42 10° NW 05:14:27 19° W 05:15:22 18° WSW
Cosmos 1656 Rocket 4.2 05:10:07 10° NW 05:14:52 32° WSW 05:19:36 10° SSW
Okean 2 Rocket 3.5 05:14:17 10° NNW 05:18:32 42° W 05:22:47 10° SSW
Geosat 4.2 05:15:45 10° NNE 05:20:48 74° ESE 05:25:48 10° SSW
Abrixas rocket 2.2 05:19:49 10° WNW 05:23:07 63° SSW 05:26:26 10° SE
ATLAS 5 CENTAUR R/B 4.0 05:21:38 10° WNW 05:24:23 14° NNW 05:27:16 10° N
ADEOS Rocket 3.6 05:16:37 10° NNE 05:24:26 82° WNW 05:32:06 10° SSW
SL-16 R/B 4.2 05:26:22 11° W 05:27:08 11° W 05:28:39 10° WNW
Cosmos 1674 Rocket 4.1 05:25:47 10° S 05:30:10 65° E 05:34:34 10° NNE
Meteor 1-31 Rocket 3.0 05:33:23 10° NNE 05:37:12 71° ESE 05:41:00 10° S
Cosmos 2366 rocket 4.4 05:33:36 10° N 05:39:48 71° E 05:45:56 10° SSE
CENTAUR R/B 4.0 05:34:56 10° W 05:40:08 25° NNW 05:45:50 10° NNE
NOAA 6 4.5 05:39:53 10° NNE 05:45:02 68° ESE 05:50:11 10° S
Cosmos 1570 Rocket 4.1 05:41:03 10° NNW 05:46:18 87° ENE 05:51:32 10° SSE
Meteor 1-25 Rocket 4.3 05:41:25 10° NNW 05:46:52 57° W 05:52:18 10° S
COSMOS 2487 4.2 05:44:27 10° WSW 05:46:59 18° WNW 05:49:32 10° NNW
Cosmos 2181 Rocket 4.3 05:41:15 10° SSW 05:47:30 53° WNW 05:53:44 10° N
BREEZE-M DEB (TANK) 4.0 05:45:15 10° W 05:48:02 51° NNW 05:54:37 10° ENE
Cosmos 1300 Rocket 3.8 05:44:09 10° N 05:48:29 75° E 05:52:47 10° SSE
Meteor 1-20 Rocket 4.3 05:45:43 10° NNW 05:51:22 63° W 05:57:04 10° S
SL-08 R/B 4.5 05:46:37 10° N 05:52:47 84° W 05:58:52 10° S
